DW7873 Weather Reports


time (UTC)temp
C
wind
direction
speed
KPH
gust
KPH
rain 1hr
cm
rain 24hr
cm
rain mn
cm
humidity
%
barometer
mb
20260505024018 15 0 1.6 12.9 0.00 0.00 0.00 51 1009.4
20260505023518 15 213 1.6 16.1 0.00 0.00 0.00 51 1009.4
20260505023042 15 207 1.6 17.7 0.00 0.00 0.00 50 1009.5
20260505022518 15 140 3.2 17.7 0.00 0.00 0.00 51 1009.3
20260505022017 15 0 0.0 9.7 0.00 0.00 0.00 50 1009.4
20260505021532 15 236 3.2 12.9 0.00 0.00 0.00 50 1009.5
20260505021021 15 164 3.2 12.9 0.00 0.00 0.00 49 1009.5
20260505020519 15 0 1.6 11.3 0.00 0.00 0.00 49 1009.4
20260505020038 15 289 1.6 11.3 0.00 0.00 0.00 49 1009.4
20260505015518 16 101 0.0 9.7 0.00 0.00 0.00 48 1009.4
20260505015017 16 153 3.2 9.7 0.00 0.00 0.00 47 1009.3
20260505014540 16 5 0.0 9.7 0.00 0.00 0.00 47 1009.2
20260505014017 16 165 1.6 16.1 0.00 0.00 0.00 47 1009.1
20260505013515 16 0 1.6 17.7 0.00 0.00 0.00 46 1009.1
20260505013040 16 184 3.2 17.7 0.00 0.00 0.00 46 1009.0
20260505012519 16 159 1.6 9.7 0.00 0.00 0.00 46 1008.9
20260505012018 16 228 3.2 14.5 0.00 0.00 0.00 46 1008.8
20260505011534 16 98 0.0 14.5 0.00 0.00 0.00 45 1008.7
20260505011017 16 70 3.2 14.5 0.00 0.00 0.00 45 1008.6
20260505010518 17 180 3.2 22.5 0.00 0.00 0.00 45 1008.5
20260505010035 17 40 3.2 22.5 0.00 0.00 0.00 44 1008.5
20260505005518 17 250 1.6 12.9 0.00 0.00 0.00 44 1008.3
20260505005019 17 236 3.2 14.5 0.00 0.00 0.00 44 1008.1
20260505004555 17 338 1.6 14.5 0.00 0.00 0.00 43 1008.0
20260505004018 17 151 3.2 14.5 0.00 0.00 0.00 43 1007.9
20260505003522 17 248 1.6 14.5 0.00 0.00 0.00 43 1007.7
20260505003033 18 0 3.2 16.1 0.00 0.00 0.00 42 1007.6
20260505002517 18 155 4.8 16.1 0.00 0.00 0.00 41 1007.6
20260505002017 18 234 4.8 16.1 0.00 0.00 0.00 40 1007.4
20260505001539 18 352 3.2 22.5 0.00 0.00 0.00 40 1007.3
20260505001015 18 223 3.2 22.5 0.00 0.00 0.00 39 1007.1
20260505000519 18 338 4.8 19.3 0.00 0.00 0.00 39 1007.0
20260505000037 19 5 3.2 19.3 0.00 0.00 0.00 38 1006.8
20260504235517 19 150 3.2 17.7 0.00 0.00 0.00 37 1006.7
20260504235017 20 334 4.8 11.3 0.00 0.00 0.00 35 1006.7
20260504234536 20 157 3.2 11.3 0.00 0.00 0.00 33 1006.5
20260504234017 20 244 1.6 9.7 0.00 0.00 0.00 32 1006.2
20260504233518 20 0 1.6 8.0 0.00 0.00 0.00 32 1006.2
20260504233032 20 261 1.6 9.7 0.00 0.00 0.00 32 1006.2
20260504232517 20 285 0.0 16.1 0.00 0.00 0.00 31 1006.1
20260504232016 21 0 4.8 16.1 0.00 0.00 0.00 30 1006.0
20260504231540 21 261 4.8 12.9 0.00 0.00 0.00 30 1006.0
20260504231019 21 282 4.8 16.1 0.00 0.00 0.00 30 1005.9
20260504230522 21 311 3.2 16.1 0.00 0.00 0.00 30 1005.9
20260504230038 21 346 3.2 12.9 0.00 0.00 0.00 30 1005.7
20260504225517 21 333 3.2 9.7 0.00 0.00 0.00 29 1005.7
20260504225016 21 348 1.6 17.7 0.00 0.00 0.00 29 1005.7
20260504224539 21 209 1.6 17.7 0.00 0.00 0.00 29 1005.6
20260504224018 21 163 3.2 17.7 0.00 0.00 0.00 30 1005.6
20260504223519 21 262 1.6 9.7 0.00 0.00 0.00 29 1005.5
20260504223032 21 242 1.6 12.9 0.00 0.00 0.00 29 1005.5
20260504222518 22 22 3.2 12.9 0.00 0.00 0.00 29 1005.5
20260504222015 22 297 4.8 16.1 0.00 0.00 0.00 29 1005.5
20260504221538 22 195 4.8 16.1 0.00 0.00 0.00 29 1005.3
20260504221016 22 268 3.2 14.5 0.00 0.00 0.00 29 1005.5
20260504220520 22 296 3.2 17.7 0.00 0.00 0.00 29 1005.5
20260504220035 22 331 4.8 17.7 0.00 0.00 0.00 29 1005.5
20260504215517 22 287 4.8 20.9 0.00 0.00 0.00 29 1005.5
20260504215018 22 310 1.6 20.9 0.00 0.00 0.00 29 1005.6
20260504214536 22 302 1.6 16.1 0.00 0.00 0.00 30 1005.5
20260504214018 22 262 3.2 17.7 0.00 0.00 0.00 29 1005.4
20260504213516 22 284 4.8 17.7 0.00 0.00 0.00 28 1005.4
20260504213041 22 259 3.2 22.5 0.00 0.00 0.00 29 1005.4
20260504212518 22 292 6.4 22.5 0.00 0.00 0.00 28 1005.4
20260504212016 22 350 1.6 14.5 0.00 0.00 0.00 29 1005.5
20260504211536 22 267 4.8 16.1 0.00 0.00 0.00 29 1005.4
20260504211016 22 325 3.2 20.9 0.00 0.00 0.00 28 1005.5
20260504210517 22 313 3.2 20.9 0.00 0.00 0.00 29 1005.5
20260504210032 22 305 8.0 22.5 0.00 0.00 0.00 28 1005.4
20260504205517 22 310 6.4 22.5 0.00 0.00 0.00 28 1005.5
20260504205022 21 175 3.2 19.3 0.00 0.00 0.00 29 1005.5
20260504204536 22 193 6.4 19.3 0.00 0.00 0.00 27 1005.6
20260504204016 22 276 6.4 24.1 0.00 0.00 0.00 28 1005.4
20260504203517 22 321 6.4 24.1 0.00 0.00 0.00 27 1005.5
20260504203035 22 290 6.4 25.7 0.00 0.00 0.00 27 1005.4
20260504202516 22 307 4.8 25.7 0.00 0.00 0.00 26 1005.5
20260504202016 22 352 6.4 25.7 0.00 0.00 0.00 28 1005.5
20260504201533 22 230 3.2 19.3 0.00 0.00 0.00 29 1005.4
20260504201018 22 120 8.0 25.7 0.00 0.00 0.00 27 1005.5
20260504200516 22 211 4.8 25.7 0.00 0.00 0.00 27 1005.5
20260504200033 22 30 4.8 20.9 0.00 0.00 0.00 27 1005.5
20260504195517 22 346 4.8 25.7 0.00 0.00 0.00 26 1005.6
20260504195018 22 284 6.4 25.7 0.00 0.00 0.00 26 1005.6
20260504194535 22 332 4.8 16.1 0.00 0.00 0.00 26 1005.7
20260504194017 22 84 6.4 19.3 0.00 0.00 0.00 27 1005.5
20260504193517 22 313 4.8 22.5 0.00 0.00 0.00 27 1005.8
20260504193041 22 258 8.0 22.5 0.00 0.00 0.00 27 1005.7
20260504192516 22 342 4.8 17.7 0.00 0.00 0.00 25 1005.6
20260504192021 22 275 6.4 25.7 0.00 0.00 0.00 27 1005.7
20260504191557 22 186 4.8 25.7 0.00 0.00 0.00 27 1005.8
20260504191016 22 5 8.0 25.7 0.00 0.00 0.00 27 1005.8
20260504190516 22 344 6.4 25.7 0.00 0.00 0.00 29 1005.9
20260504190031 22 55 8.0 25.7 0.00 0.00 0.00 26 1005.7
20260504185516 22 281 4.8 17.7 0.00 0.00 0.00 30 1005.8
20260504185017 21 130 6.4 17.7 0.00 0.00 0.00 26 1005.9
20260504184541 21 309 4.8 24.1 0.00 0.00 0.00 27 1006.0
20260504184020 22 171 6.4 24.1 0.00 0.00 0.00 28 1006.1
20260504183517 21 301 8.0 24.1 0.00 0.00 0.00 27 1006.1
20260504183035 22 284 8.0 24.1 0.00 0.00 0.00 26 1006.1
20260504182522 21 321 4.8 17.7 0.00 0.00 0.00 28 1006.1
20260504182017 21 94 6.4 22.5 0.00 0.00 0.00 28 1006.2
20260504181534 21 308 4.8 22.5 0.00 0.00 0.00 27 1006.3
20260504181016 21 163 6.4 30.6 0.00 0.00 0.00 27 1006.1
20260504180520 21 300 6.4 30.6 0.00 0.00 0.00 29 1006.3
20260504180036 21 222 8.0 30.6 0.00 0.00 0.00 27 1006.1
20260504175518 21 333 8.0 22.5 0.00 0.00 0.00 27 1006.2
20260504175021 21 174 4.8 22.5 0.00 0.00 0.00 29 1006.2
20260504174537 21 269 6.4 22.5 0.00 0.00 0.00 27 1006.2
20260504174017 21 293 6.4 22.5 0.00 0.00 0.00 28 1006.3
20260504173517 20 316 8.0 22.5 0.00 0.00 0.00 29 1006.4
20260504173035 20 207 6.4 22.5 0.00 0.00 0.00 30 1006.7
20260504172516 20 192 4.8 24.1 0.00 0.00 0.00 29 1006.6
20260504172016 20 316 8.0 24.1 0.00 0.00 0.00 28 1006.8
20260504171530 20 196 8.0 24.1 0.00 0.00 0.00 30 1006.8
20260504171021 20 320 8.0 20.9 0.00 0.00 0.00 28 1006.7
20260504170516 20 227 6.4 20.9 0.00 0.00 0.00 28 1006.8
20260504151015 18 280 8.0 22.5 0.00 0.00 0.00 33 1008.1
20260504150521 18 278 4.8 17.7 0.00 0.00 0.00 34 1008.0
20260504141022 17 360 4.8 14.5 0.00 0.00 0.00 39 1008.7
20260504140516 17 245 3.2 19.3 0.00 0.00 0.00 38 1008.8
20260504130515 15 117 4.8 16.1 0.00 0.00 0.00 41 1009.2
20260504110516 8 302 0.0 3.2 0.00 0.00 0.00 57 1009.5
20260504100517 7 294 0.0 4.8 0.00 0.00 0.00 61 1009.8
20260504081535 6 0 0.0 0.0 0.00 0.00 0.00 62 1009.7
20260504081021 6 0 0.0 0.0 0.00 0.00 0.00 62 1009.6
20260504080517 6 0 0.0 0.0 0.00 0.00 0.00 63 1009.7
20260504050519 2 0 0.0 0.0 0.00 0.00 0.00 70 1009.7
20260504045516 2 0 0.0 0.0 0.00 0.00 0.00 70 1009.7
20260504045019 3 0 0.0 0.0 0.00 0.00 0.00 70 1009.7
20260504044536 3 0 0.0 1.6 0.00 0.00 0.00 70 1009.8
20260504044017 3 0 0.0 1.6 0.00 0.00 0.00 69 1009.8
20260504043526 3 0 0.0 1.6 0.00 0.00 0.00 69 1009.8
20260504043037 3 0 0.0 1.6 0.00 0.00 0.00 68 1009.8
20260504042519 3 0 0.0 1.6 0.00 0.00 0.00 68 1009.7
20260504042017 3 0 0.0 1.6 0.00 0.00 0.00 68 1009.7
20260504041532 3 0 0.0 0.0 0.00 0.00 0.00 68 1009.7
20260504041019 3 0 0.0 0.0 0.00 0.00 0.00 68 1009.6
20260504040519 3 0 0.0 0.0 0.00 0.00 0.00 68 1009.6
20260504040035 3 0 0.0 1.6 0.00 0.00 0.00 68 1009.6
20260504035521 3 0 0.0 1.6 0.00 0.00 0.00 68 1009.5
20260504035021 3 0 0.0 1.6 0.00 0.00 0.00 67 1009.5
20260504034533 3 0 0.0 1.6 0.00 0.00 0.00 67 1009.4
20260504034020 3 0 0.0 1.6 0.00 0.00 0.00 67 1009.5
20260504033519 3 0 0.0 1.6 0.00 0.00 0.00 67 1009.3
20260504033038 3 0 0.0 1.6 0.00 0.00 0.00 66 1009.4
20260504032519 3 0 0.0 1.6 0.00 0.00 0.00 65 1009.3
20260504032017 3 0 0.0 1.6 0.00 0.00 0.00 65 1009.4
20260504031533 3 0 0.0 1.6 0.00 0.00 0.00 65 1009.3
20260504031018 3 0 0.0 0.0 0.00 0.00 0.00 64 1009.4
20260504030519 3 0 0.0 0.0 0.00 0.00 0.00 64 1009.3
20260504030033 3 0 0.0 0.0 0.00 0.00 0.00 63 1009.4
20260504025520 4 0 0.0 0.0 0.00 0.00 0.00 63 1009.4
20260504025019 4 0 0.0 0.0 0.00 0.00 0.00 62 1009.3
20260504024541 4 0 0.0 0.0 0.00 0.00 0.00 62 1009.3